GFSNE_sfc_thetae_102.txt.gz
Theta_e
295 295 294 293 293 293 293 293 291 288 289 291 290 292 291 292 291 291 291 289 291 292 294 296 295 296 296 297 298 298 299 299 299 300 301 301 302 302
293 293 292 292 291 292 292 292 292 290 288 290 289 290 291 290 291 291 289 289 289 291 294 294 294 294 294 294 295 295 296 296 296 297 298 299 299 300
291 291 290 290 290 290 291 290 290 289 287 289 290 290 289 289 290 290 289 289 288 289 291 293 293 292 292 292 292 292 293 293 293 294 294 295 296 296
290 289 288 288 288 289 289 288 289 289 287 285 288 288 288 289 289 288 287 288 287 287 289 290 291 291 291 290 290 290 290 290 290 290 291 292 292 293
289 288 288 288 288 288 288 288 288 287 288 286 286 288 288 289 287 287 287 287 287 286 287 286 288 289 289 289 289 289 288 288 288 288 288 289 289 290
289 288 288 288 288 287 287 287 287 287 287 286 286 286 287 287 287 283 283 286 285 286 286 284 285 286 288 287 287 286 287 287 287 286 286 286 287 287
287 287 287 286 285 287 287 286 286 286 286 285 285 285 285 284 282 283 282 282 286 286 285 285 284 284 284 287 286 286 285 285 285 285 285 285 285 285
286 286 286 284 285 286 286 285 286 285 285 284 284 283 283 283 283 281 281 280 279 287 284 284 284 283 283 286 286 286 285 284 283 283 283 284 283 283
285 285 284 284 284 285 285 286 286 286 286 285 283 284 283 285 283 281 281 280 279 283 283 282 284 283 282 282 284 284 285 283 282 281 281 281 282 282
285 285 284 284 284 284 284 284 284 285 285 286 286 286 285 286 284 282 281 280 281 283 283 279 284 282 282 281 280 281 282 283 282 280 279 279 279 280
283 283 283 283 283 284 284 283 283 284 286 286 287 288 288 285 284 282 279 278 280 283 282 280 282 281 282 280 279 277 278 280 281 281 280 278 276 276
282 281 281 282 282 283 284 283 281 282 284 285 285 286 287 283 282 281 281 278 278 280 281 279 281 280 279 279 277 276 275 275 276 279 280 279 277 275
281 280 281 281 282 283 285 285 283 284 284 284 285 286 285 283 281 281 280 280 280 280 281 280 280 280 279 279 277 275 274 273 273 273 274 277 278 277
281 281 281 281 283 284 284 284 284 284 285 283 282 283 283 283 283 282 280 279 280 279 279 277 278 279 278 277 276 274 273 273 273 272 272 273 273 275
281 281 281 283 282 282 282 282 281 281 281 280 281 282 283 283 283 281 279 278 277 277 276 276 276 278 277 276 276 275 273 272 272 271 271 271 271 272
280 281 280 280 280 281 278 278 279 280 279 279 280 281 282 281 280 281 279 278 276 277 276 275 274 275 276 276 276 275 273 271 271 270 270 270 271 271
279 278 277 277 276 276 276 275 276 277 278 278 278 278 279 280 280 281 279 279 276 277 276 274 273 274 275 274 273 273 272 270 270 270 268 269 270 270
277 276 275 274 273 273 273 272 273 274 275 276 276 276 277 277 278 280 279 278 277 277 277 275 273 272 272 272 273 272 271 270 269 268 268 267 269 270
275 274 274 272 271 270 270 270 270 271 271 272 274 274 275 275 276 277 279 278 277 277 277 275 273 272 271 270 271 272 270 269 268 267 268 268 268 269
272 272 271 270 269 268 268 268 268 268 269 270 270 271 271 272 273 275 277 277 277 277 275 274 272 272 271 272 273 270 272 269 268 268 267 267 268 269
269 268 268 267 266 266 266 266 266 266 267 266 268 269 270 271 271 273 275 275 276 276 274 273 273 274 273 270 268 268 269 271 269 268 268 266 266 266
268 267 266 265 265 264 265 265 265 265 266 266 266 267 268 269 269 271 272 273 274 274 274 275 269 269 268 268 269 269 267 268 269 270 270 269 267 265
266 266 265 264 264 264 263 264 263 265 265 264 265 265 266 265 267 269 270 272 273 273 273 270 268 267 268 268 268 268 266 264 265 265 266 270 272 272

GFSNE_sfc_thetae_105.txt.gz
Theta_e
298 297 296 294 295 294 294 294 291 288 289 291 290 292 292 292 290 291 289 290 291 293 295 294 294 294 295 295 295 295 296 296 295 296 296 297 297 298
296 295 294 293 293 293 293 292 292 290 288 290 290 291 291 290 291 290 289 290 289 291 293 293 293 293 293 293 293 293 294 294 293 294 294 295 295 296
294 293 292 292 291 291 292 291 291 290 288 289 290 290 289 289 290 290 289 288 288 288 290 290 291 292 291 291 291 291 291 291 291 291 292 293 293 294
291 291 289 290 289 290 290 290 290 289 288 286 288 288 288 289 288 287 287 288 287 287 288 288 289 290 290 290 289 289 289 289 289 289 289 290 291 292
290 289 288 288 288 288 289 289 289 287 288 287 286 288 288 287 286 286 285 286 287 287 287 286 287 288 290 289 288 287 287 287 287 287 287 287 288 289
290 290 288 288 288 288 288 288 287 287 286 285 285 285 285 285 285 283 282 283 283 286 286 285 285 286 287 288 287 286 286 285 285 285 285 286 286 287
288 287 288 287 288 289 287 287 287 286 285 285 284 284 284 283 282 283 281 282 282 283 284 284 282 283 284 285 285 286 286 284 284 283 284 284 285 285
286 286 286 284 285 286 286 287 288 285 283 283 284 283 282 282 284 282 281 280 278 284 281 282 281 282 282 281 285 285 285 284 283 282 282 283 284 284
286 285 284 284 285 285 286 286 286 287 286 284 283 283 282 282 280 280 280 280 279 282 282 279 282 280 281 281 282 283 284 284 283 281 280 280 281 282
285 285 284 284 284 284 284 284 284 284 284 284 284 284 284 285 284 283 281 280 280 281 282 277 281 281 283 278 280 280 281 282 283 282 281 279 279 279
284 284 284 283 284 285 284 283 283 284 286 286 286 287 288 289 286 283 280 278 277 282 282 280 279 281 281 281 277 278 278 279 280 281 281 280 278 277
282 282 282 283 284 284 283 283 281 283 283 283 283 285 286 286 286 283 281 277 278 278 281 278 280 280 276 277 276 275 274 276 276 277 279 280 279 273
281 281 281 283 284 284 285 283 283 284 283 282 283 284 284 284 281 281 282 280 278 279 281 278 279 279 278 277 278 275 273 273 273 273 274 276 278 277
282 282 282 283 283 284 284 285 285 284 283 282 282 282 282 283 283 282 281 280 280 280 279 278 274 276 277 276 275 273 273 272 272 271 271 273 274 275
283 282 283 283 284 284 284 284 282 280 280 279 280 280 283 282 282 281 281 279 278 278 278 276 275 275 276 275 274 275 272 271 271 271 270 270 270 271
282 282 282 282 281 281 280 281 279 279 279 278 279 280 281 281 280 281 279 278 276 276 276 276 275 275 273 274 274 273 272 268 269 269 270 270 270 271
281 280 278 278 277 278 278 277 277 276 276 277 278 277 278 278 279 280 280 279 277 274 276 272 274 274 274 274 269 272 272 268 270 269 267 266 269 270
279 278 277 277 276 276 275 275 274 274 275 275 274 275 275 276 276 278 279 278 276 276 275 277 271 271 270 270 274 270 270 269 268 268 267 264 265 268
278 277 276 276 275 274 273 272 272 273 271 270 272 272 273 274 274 274 276 277 277 276 276 278 272 271 269 268 267 276 270 269 268 264 265 265 264 268
276 276 275 274 272 271 271 270 270 269 269 269 269 269 269 270 271 272 273 274 276 276 275 276 272 272 270 271 272 268 275 269 268 267 266 265 267 271
273 272 272 271 270 269 268 268 267 267 267 266 266 266 267 269 269 270 271 272 272 272 272 274 274 275 274 270 267 264 268 274 272 268 267 264 264 265
272 271 270 268 268 267 266 266 265 265 265 266 265 265 265 267 267 267 268 269 270 271 272 273 269 270 269 269 268 269 267 268 272 272 272 270 265 260
270 269 268 267 266 266 266 265 264 265 265 263 262 262 263 262 262 265 267 267 268 269 270 271 266 267 267 268 268 269 265 265 266 265 266 271 273 273

GFSNE_sfc_thetae_108.txt.gz
Theta_e
296 292 291 290 290 289 290 289 288 284 285 286 285 287 287 287 289 286 285 290 291 293 293 294 293 293 294 294 294 294 295 294 294 294 295 295 296 296
293 291 289 289 289 289 289 289 288 286 283 286 286 287 287 288 289 286 286 288 289 290 290 291 292 292 292 292 292 292 292 292 292 292 293 294 294 294
292 290 289 289 288 288 288 288 287 286 285 285 286 286 286 285 286 286 286 285 284 287 288 289 290 290 290 291 291 290 290 290 290 290 291 292 292 293
290 288 287 289 287 287 287 287 287 286 286 284 285 285 285 285 285 283 285 286 284 286 287 288 288 289 289 289 289 288 288 288 288 288 288 289 290 291
289 288 287 286 285 285 286 286 286 287 286 284 284 284 284 283 282 282 282 282 285 287 287 286 286 287 289 288 288 287 287 286 286 286 286 287 288 289
288 287 286 286 285 285 285 285 285 284 284 284 283 282 281 282 280 279 278 278 278 284 286 285 285 285 286 287 287 286 286 285 284 284 285 286 286 286
287 286 286 286 288 287 286 284 284 283 283 283 283 279 279 279 280 280 281 281 278 277 276 277 277 277 279 282 283 285 286 285 284 283 283 284 284 284
286 284 284 284 288 290 290 289 287 285 283 282 282 280 280 280 279 278 280 279 277 283 281 281 277 274 277 276 284 284 285 285 283 282 281 281 282 283
285 284 283 283 284 284 287 288 287 288 287 284 282 280 278 280 278 275 280 279 279 281 281 278 273 274 277 281 283 283 283 283 283 282 281 280 280 281
285 284 283 282 283 283 283 283 283 284 284 284 282 281 283 284 282 282 281 279 280 281 281 277 276 281 281 278 284 281 281 281 282 282 281 280 279 278
284 284 283 282 285 286 283 282 282 283 286 287 287 287 287 287 286 281 278 277 276 279 281 280 278 279 277 274 277 280 278 278 279 280 280 280 279 277
282 282 283 283 286 286 282 282 280 281 282 281 281 284 285 284 288 283 279 277 277 276 276 279 274 276 271 274 275 275 274 277 277 277 277 279 279 273
281 280 282 285 286 286 285 282 282 283 284 281 280 281 280 283 280 282 281 280 278 277 280 278 274 278 275 273 276 274 273 273 272 273 275 276 276 276
280 281 281 285 285 285 284 285 286 285 282 280 280 280 279 281 283 281 281 281 282 281 280 278 273 272 271 270 274 272 272 271 271 271 271 273 274 275
282 282 283 285 285 285 285 285 283 280 278 277 278 279 279 281 281 281 281 281 280 279 279 277 276 275 273 270 269 270 272 271 271 270 270 270 270 271
283 283 283 283 283 282 281 282 280 278 278 277 277 277 279 278 278 279 279 278 277 276 276 277 275 275 272 273 274 272 271 270 269 269 269 269 270 270
280 279 278 278 277 278 278 278 277 276 275 275 274 275 276 276 277 277 279 278 276 275 272 270 274 274 274 272 269 272 269 268 269 269 268 265 268 270
277 276 277 277 277 277 276 275 275 274 273 274 273 272 272 273 273 274 276 276 276 276 271 271 271 269 268 267 274 270 269 270 269 269 267 262 265 268
278 278 278 277 277 276 275 274 273 272 271 270 269 269 270 269 270 269 270 272 274 275 275 272 270 268 267 267 266 277 270 269 268 264 267 266 264 268
280 277 276 276 275 274 273 272 271 270 268 267 267 266 264 265 264 265 267 269 271 270 271 274 272 271 271 270 269 268 277 266 266 267 267 267 268 272
276 275 275 274 273 272 271 270 269 268 267 265 263 263 263 263 263 265 267 269 269 268 268 267 273 274 273 269 266 262 267 277 271 267 267 265 265 265
274 272 271 271 270 269 268 268 267 266 265 264 264 265 264 262 264 262 261 264 265 266 268 268 268 268 267 269 268 265 265 266 273 275 273 270 265 261
272 271 269 268 267 267 266 266 266 266 266 266 265 264 264 264 263 263 263 263 264 265 266 266 265 266 264 266 265 264 265 261 265 266 266 273 274 273

GFSNE_sfc_thetae_111.txt.gz
Theta_e
304 298 295 292 290 290 290 289 287 283 285 285 284 287 287 287 288 286 286 290 291 292 292 292 292 293 293 294 293 293 293 293 293 293 294 294 295 295
298 294 292 291 289 289 288 288 288 286 284 286 285 286 287 288 289 286 286 289 289 289 289 290 290 291 291 292 292 292 292 291 291 291 292 293 293 294
293 293 291 290 288 287 287 287 286 286 284 284 286 286 286 286 286 285 285 284 284 288 288 288 289 289 290 290 290 290 289 289 289 290 290 291 291 292
292 290 290 289 287 287 287 286 286 286 286 283 284 284 284 285 286 283 284 285 283 287 288 288 288 288 288 288 288 288 288 287 287 287 288 289 289 290
293 291 289 288 286 286 286 286 286 286 285 283 283 284 284 284 284 282 281 281 284 287 288 288 287 287 288 287 287 287 286 286 285 285 286 287 287 288
293 290 289 288 287 286 285 285 285 283 283 282 282 282 283 283 282 281 277 278 279 283 286 285 286 286 286 286 286 286 286 285 284 284 284 285 285 286
290 289 288 287 288 288 286 284 285 282 282 282 282 281 282 282 281 280 278 279 279 279 278 278 277 279 278 284 283 285 286 285 284 283 282 283 283 284
288 286 286 285 288 289 290 289 287 284 283 282 282 282 283 282 281 279 277 277 276 280 281 281 278 276 276 276 284 284 284 284 283 282 281 281 281 282
287 286 284 285 286 287 290 289 289 289 288 284 283 283 282 282 279 274 277 278 279 280 280 278 275 273 274 282 286 284 283 283 283 282 281 280 280 280
286 286 285 284 285 285 285 284 284 284 285 285 284 284 283 283 281 280 279 278 280 280 281 276 278 274 279 275 286 285 282 281 282 282 281 281 280 278
285 285 285 284 286 287 284 283 282 282 287 287 287 287 287 287 285 282 275 274 274 277 280 279 278 275 275 273 277 285 282 280 280 280 280 280 280 277
284 284 284 284 286 287 283 282 280 281 282 281 282 285 287 286 288 285 282 276 275 275 278 279 277 276 271 273 275 276 276 280 280 278 277 278 279 272
283 282 283 286 287 287 285 282 282 282 284 282 281 281 281 281 281 283 284 282 278 277 280 280 274 274 271 270 274 275 274 274 273 273 276 276 276 275
282 282 283 286 287 287 286 285 286 284 282 281 280 280 280 281 283 281 281 282 283 281 281 282 277 274 272 270 272 272 272 271 272 271 271 273 275 276
282 282 284 286 286 286 287 286 284 283 281 280 280 280 280 281 281 281 281 281 281 280 280 280 277 276 275 272 271 269 270 271 271 270 270 270 270 270
284 283 284 284 285 284 282 285 283 282 281 280 279 279 279 279 279 280 279 279 278 277 278 279 278 277 274 274 274 273 270 272 269 269 269 269 270 270
281 281 281 281 280 280 279 279 280 279 278 278 277 276 277 277 277 277 278 278 276 273 274 273 276 276 275 273 269 271 270 270 270 269 267 265 268 269
279 279 278 278 278 278 278 278 277 277 277 276 275 275 276 276 276 275 276 275 275 275 276 273 270 271 269 269 275 270 267 270 269 269 267 263 264 268
276 277 277 277 277 278 277 277 276 275 275 274 274 274 273 273 272 273 273 273 272 273 274 272 271 270 266 266 267 278 270 266 266 263 266 264 264 268
280 273 276 277 277 277 275 274 274 272 272 271 271 270 270 270 269 269 270 269 270 270 270 270 272 271 271 270 265 270 278 268 265 264 264 265 267 272
280 277 272 274 275 274 273 272 271 270 270 269 269 268 268 267 267 268 268 268 268 268 267 268 271 273 274 271 267 263 266 276 271 267 266 264 263 263
272 272 272 273 273 272 271 270 268 268 267 267 266 266 266 266 266 266 266 266 266 267 268 269 270 270 269 270 268 262 263 264 271 276 274 271 264 260
270 271 269 269 268 268 268 267 267 267 267 266 266 266 266 264 265 266 265 265 265 265 266 266 268 268 268 268 267 265 264 259 261 265 267 275 275 274

GFSNE_sfc_thetae_114.txt.gz
Theta_e
316 312 308 304 298 295 292 291 287 282 283 284 283 285 286 287 288 286 287 291 292 292 291 292 291 292 292 293 293 293 293 293 293 293 293 294 294 295
312 306 302 296 295 292 290 290 287 285 282 285 284 285 286 287 288 285 287 290 290 290 290 290 290 290 291 291 291 291 291 291 291 291 292 292 293 293
302 303 302 292 291 288 289 288 286 285 283 282 284 285 285 285 286 285 287 286 287 289 289 289 289 289 289 289 289 289 289 289 289 289 290 291 291 292
303 298 296 292 289 290 289 288 287 286 286 282 283 283 283 285 285 284 285 286 285 287 289 289 289 289 289 288 288 288 287 287 287 287 288 288 289 289
305 298 295 293 290 289 288 287 287 287 286 282 281 282 283 284 283 283 283 283 284 286 289 289 289 289 289 289 288 287 287 286 286 285 285 286 286 287
302 300 298 294 294 290 287 287 286 285 284 282 281 281 282 282 282 282 280 281 282 283 286 286 287 287 288 288 287 286 286 286 285 284 283 284 284 285
297 296 295 292 292 290 288 286 286 284 283 282 282 281 280 281 281 281 281 281 280 281 279 279 280 280 283 286 285 285 286 286 284 283 282 282 282 283
291 290 288 286 290 291 289 289 288 285 284 282 282 282 281 280 281 281 280 278 276 277 276 277 281 278 278 279 284 286 286 285 285 283 283 282 281 281
289 287 286 286 287 288 289 290 289 289 288 285 283 282 281 282 282 279 279 278 278 279 278 278 277 278 277 280 286 287 286 285 285 284 282 282 281 280
287 287 286 285 286 286 286 286 285 286 286 285 284 283 283 284 283 282 281 279 279 280 279 276 278 276 278 278 286 286 286 285 284 283 283 282 281 280
285 286 286 286 287 288 285 285 284 283 288 288 287 288 288 287 284 281 278 276 275 277 279 277 278 277 277 277 279 286 286 285 283 282 282 281 281 279
284 284 285 285 288 289 285 285 282 283 282 280 282 285 286 285 287 284 282 277 275 275 279 277 276 278 274 276 277 277 280 284 283 282 281 280 280 272
283 283 284 287 288 288 286 284 284 283 284 281 281 281 281 282 284 285 284 282 279 278 280 280 276 276 274 273 276 276 276 275 275 275 280 280 279 276
283 283 284 287 287 288 286 286 286 284 282 281 281 280 280 281 282 282 283 284 284 282 281 281 278 277 274 272 274 274 273 273 273 272 271 275 278 278
283 284 286 287 287 287 288 286 284 282 282 281 281 281 281 282 282 281 281 281 282 282 281 281 280 277 276 276 273 272 272 272 272 271 270 270 270 270
284 284 285 286 286 285 284 286 284 283 282 281 281 281 280 280 280 281 280 280 279 278 279 280 280 279 276 276 276 275 273 274 270 270 270 269 270 270
282 282 282 282 282 282 281 282 283 282 281 281 279 278 278 279 279 279 279 277 277 275 275 276 278 278 277 276 272 273 273 271 273 271 270 266 268 269
277 276 278 279 279 279 279 277 279 278 279 278 277 277 277 276 276 277 277 276 275 276 276 275 272 272 270 271 276 273 270 271 271 271 270 268 265 267
277 277 275 273 273 272 273 274 276 277 277 277 276 275 275 274 274 274 275 275 273 274 273 273 273 272 269 268 271 278 272 269 268 267 268 267 265 266
280 276 270 269 270 271 272 274 276 275 274 274 273 273 272 272 271 271 272 272 271 271 270 271 272 273 271 271 269 272 279 272 268 266 266 266 267 272
279 279 277 272 269 271 271 273 274 273 273 271 271 270 269 269 268 269 270 270 269 269 268 269 271 274 272 272 268 269 271 277 274 270 267 266 265 263
278 278 274 272 271 272 271 270 270 269 269 269 269 268 268 268 267 267 267 267 267 268 268 270 270 269 269 269 268 269 268 269 272 277 275 272 265 262
269 269 269 268 268 267 267 267 267 268 268 268 267 267 267 266 266 267 267 266 266 266 266 266 267 269 268 268 269 269 267 266 267 268 269 276 275 274

GFSNE_sfc_thetae_117.txt.gz
Theta_e
317 317 315 314 307 306 301 294 301 284 284 285 284 285 285 286 287 287 286 291 295 294 294 293 291 291 292 292 293 293 293 293 292 293 293 294 294 294
317 317 316 315 308 304 296 292 296 299 296 287 286 286 286 287 287 285 286 290 292 293 292 292 291 290 290 290 290 291 291 291 291 291 292 292 292 293
317 315 314 312 306 298 295 294 291 290 293 284 286 285 285 285 286 285 285 286 287 290 291 291 291 291 290 290 289 289 289 289 289 289 290 290 291 291
314 308 309 305 302 299 296 296 294 290 288 284 284 283 283 286 285 283 285 286 285 288 290 291 291 290 290 290 289 289 288 287 287 287 287 288 289 289
314 309 308 302 300 299 296 295 292 290 287 285 283 284 284 283 283 283 282 284 285 287 289 290 291 290 290 290 290 289 288 288 287 286 286 285 286 287
311 310 307 301 301 298 294 292 289 287 286 285 283 283 283 283 283 282 281 282 282 284 286 287 288 289 290 290 289 288 287 287 288 286 285 284 284 285
299 298 298 295 292 294 291 288 288 286 285 284 283 282 282 281 282 282 282 281 281 282 281 282 282 282 283 288 287 287 287 287 287 286 285 284 283 283
294 292 291 288 291 291 291 291 290 287 285 284 283 283 283 283 282 281 280 279 277 280 279 280 281 280 281 280 286 287 287 287 287 286 285 284 283 283
290 288 286 286 287 288 290 290 289 290 289 286 285 284 284 284 283 280 280 279 279 280 279 277 279 278 278 282 287 287 288 288 287 286 286 284 283 283
289 288 287 286 286 287 287 286 286 287 287 286 286 285 286 286 285 283 281 279 278 280 279 273 276 277 276 279 285 287 288 288 287 286 285 285 284 283
286 286 286 285 288 289 286 285 285 285 288 289 288 288 288 288 285 281 277 278 274 277 280 277 277 277 277 278 280 287 288 288 287 285 284 284 283 282
284 284 285 286 289 289 286 285 284 284 284 284 284 286 287 286 287 282 280 278 276 275 279 277 277 278 275 277 277 278 280 286 287 286 284 283 282 274
284 283 284 288 289 289 288 285 286 285 286 284 282 281 279 280 283 285 282 281 275 277 279 279 276 276 274 275 277 277 278 278 278 278 282 284 283 279
284 283 284 288 289 290 287 287 287 284 282 282 279 280 280 281 282 283 284 283 284 282 282 281 274 276 274 272 275 276 275 275 275 274 273 277 280 280
283 283 286 288 288 288 289 287 285 283 282 281 280 281 280 282 281 279 281 280 282 282 282 282 280 278 278 276 275 274 275 274 274 273 272 272 271 271
284 284 285 286 287 285 284 286 284 283 280 278 274 276 280 280 280 279 280 279 279 279 281 281 281 280 277 277 277 276 274 274 273 272 272 271 271 271
279 278 281 282 282 281 282 282 282 282 281 281 280 275 278 279 279 279 280 279 277 277 277 277 279 279 279 278 274 275 275 273 274 274 271 270 270 271
280 279 279 280 279 280 280 280 281 281 281 280 279 278 278 277 277 277 278 277 276 276 275 274 274 273 271 271 277 275 273 273 273 273 272 270 270 270
273 272 271 271 271 271 272 278 275 273 274 278 278 277 277 276 275 275 275 275 275 274 274 274 273 273 270 268 272 280 274 273 271 270 271 269 269 269
279 277 277 276 274 266 266 267 267 268 272 273 275 275 274 274 272 272 273 273 273 271 271 272 273 273 272 271 270 271 279 273 270 270 268 268 269 273
278 278 277 277 276 275 274 273 273 271 269 269 268 269 270 270 269 270 271 271 271 270 269 270 272 275 273 271 269 268 272 278 276 272 270 268 267 267
277 277 269 268 269 268 267 268 267 265 266 267 267 267 267 268 268 268 268 268 268 268 269 270 271 270 269 268 267 268 269 271 274 278 276 274 268 265
264 263 263 262 263 263 262 263 262 263 265 267 266 265 266 265 266 267 265 266 265 264 264 265 267 268 268 268 267 268 268 268 268 269 271 276 277 275

GFSNE_sfc_thetae_123.txt.gz
Theta_e
318 318 317 319 319 316 313 312 309 306 307 295 292 291 289 289 290 291 292 295 298 300 299 298 297 296 296 295 294 294 294 293 293 292 293 293 293 293
318 317 316 317 318 317 315 313 312 309 306 293 290 288 289 289 291 290 291 292 296 298 299 298 297 296 295 295 294 293 292 292 292 291 291 291 291 292
318 317 316 317 316 316 316 314 311 309 305 291 288 288 287 287 288 289 289 290 291 295 297 297 296 295 295 294 294 293 293 292 291 290 290 290 290 290
317 316 315 316 315 316 314 309 308 303 300 293 285 285 286 288 288 287 287 288 288 291 294 296 295 295 294 294 294 293 293 292 291 290 289 289 289 288
317 316 316 315 312 312 305 301 299 295 295 289 287 287 285 286 286 286 285 286 287 289 292 293 293 293 294 294 294 293 292 292 291 290 290 288 287 287
312 309 306 305 304 303 300 298 293 291 290 289 286 285 285 285 286 284 283 285 285 286 288 289 290 291 293 293 293 292 292 292 291 290 289 288 287 286
299 299 297 295 295 298 296 293 292 289 288 287 285 284 283 283 283 284 284 284 284 287 286 286 288 289 290 291 291 291 292 291 291 290 289 289 287 286
295 293 292 289 293 295 295 294 294 290 287 287 287 286 285 285 285 284 283 282 282 287 285 285 285 286 286 288 288 290 291 291 291 290 289 289 288 287
292 291 289 289 289 291 293 293 292 293 292 290 288 287 286 286 286 284 285 285 285 282 284 283 284 284 286 285 287 288 289 290 290 290 289 289 288 287
291 290 290 289 289 288 289 288 287 287 288 287 288 287 287 287 287 286 285 284 283 282 283 282 281 283 283 284 286 287 289 289 289 289 290 290 288 287
287 288 288 288 289 290 286 285 285 285 289 289 289 290 290 289 288 285 283 282 282 282 282 283 281 281 282 282 283 285 287 288 289 289 289 289 288 286
286 286 286 287 288 290 286 285 285 285 286 285 286 288 289 288 288 287 286 282 280 280 281 282 280 281 280 281 280 281 283 287 288 289 289 289 288 283
284 284 285 289 289 290 288 286 286 286 287 285 285 285 285 285 286 285 284 283 282 282 281 282 280 280 280 279 280 280 280 281 283 284 287 289 288 285
284 284 285 289 290 290 287 288 289 286 285 284 284 283 284 283 284 283 283 283 284 283 283 282 282 280 279 278 278 279 279 280 280 281 281 283 285 285
285 286 287 289 290 289 289 289 284 285 284 283 282 282 282 283 283 283 283 284 284 284 284 284 282 281 280 279 280 279 279 279 279 279 279 278 278 278
285 286 287 287 287 285 285 286 284 284 282 281 280 280 281 281 281 281 281 282 281 281 282 284 283 283 281 280 280 280 279 278 278 278 277 277 276 276
280 281 283 283 282 282 282 282 283 283 282 281 281 280 280 280 280 281 281 281 280 279 280 280 282 282 282 281 279 278 278 278 279 279 275 275 276 276
276 279 279 279 278 279 279 280 281 280 281 282 281 281 279 279 279 279 280 279 278 278 278 279 279 278 277 277 280 278 277 277 278 277 276 274 275 276
279 279 278 278 277 277 277 276 277 278 277 279 279 279 279 279 279 278 277 277 276 277 277 278 277 276 273 272 276 281 277 277 276 275 275 274 274 274
280 280 279 279 278 277 277 276 275 276 277 277 277 276 276 276 275 274 275 274 274 274 274 274 275 275 273 273 273 275 278 276 275 275 274 273 273 275
278 278 278 277 277 277 277 275 272 273 272 272 272 271 271 272 271 272 272 271 271 271 271 271 273 275 275 273 270 270 273 276 276 274 274 272 272 270
270 269 269 268 268 268 269 268 269 269 269 269 269 268 269 269 269 269 269 269 269 270 270 271 272 271 270 269 267 267 269 271 273 275 276 276 273 269
264 264 265 264 265 265 265 266 265 266 265 265 265 266 266 266 267 268 268 267 267 267 267 267 268 269 267 267 266 266 265 266 269 269 271 274 275 276